WB7UVH Weather Reports


Display with metric or nautical units.
time (UTC)temp
F
wind
direction
speed
MPH
gust
MPH
rain 1hr
in
rain 24hr
in
rain mn
in
humidity
%
barometer
mb
20260903090004 55 325 0.0 0.0 0.02 0.74 0.04 94 1014.5
20260903084504 55 327 0.0 0.0 0.02 0.73 0.03 94 1014.7
20260903080005 55 0 0.0 0.0 0.02 0.72 0.02 94 1014.8
20260903074504 55 288 0.0 0.0 0.01 0.71 0.01 95 1014.9
20260903073004 55 288 0.0 0.0 0.01 0.71 0.01 95 1015.1
20260903071504 55 269 1.0 9.0 0.00 0.70 0.00 95 1014.8
20260903070005 55 241 0.0 0.0 0.00 0.70 0.00 96 1014.6
20260903064504 56 274 0.0 0.0 0.00 0.70 0.70 96 1014.6
20260903063004 55 272 0.0 0.0 0.00 0.70 0.70 95 1014.6
20260903061505 55 311 0.0 0.0 0.00 0.70 0.70 96 1014.5
20260903060004 55 311 0.0 1.0 0.00 0.70 0.70 95 1014.7
20260903054504 56 302 0.0 0.0 0.00 0.70 0.70 95 1014.6
20260903053004 56 242 0.0 0.0 0.00 0.70 0.70 95 1014.6
20260903051505 56 245 0.0 0.0 0.01 0.70 0.70 95 1014.5
20260903050004 56 257 0.0 0.0 0.01 0.70 0.70 96 1014.3
20260903044504 56 257 0.0 0.0 0.02 0.70 0.70 96 1014.2
20260903043005 56 338 0.0 5.0 0.02 0.70 0.70 96 1014.1
20260903041504 56 286 0.0 8.0 0.01 0.69 0.69 96 1014.0
20260903034505 57 270 0.0 0.0 0.00 0.68 0.68 96 1013.7
20260903033005 57 269 0.0 0.0 0.00 0.68 0.68 96 1013.7
20260903031504 57 271 0.0 0.0 0.00 0.68 0.68 96 1013.4
20260903030004 57 269 0.0 3.0 0.00 0.68 0.68 96 1013.2
20260903024504 57 261 0.0 0.0 0.00 0.68 0.68 96 1013.4
20260903021505 58 271 0.0 0.0 0.01 0.68 0.68 96 1013.0
20260903014505 58 279 0.0 0.0 0.07 0.68 0.68 95 1012.9
20260903013005 59 264 0.0 0.0 0.11 0.67 0.67 95 1012.6
20260903011504 59 253 0.0 0.0 0.21 0.67 0.67 96 1012.5
20260903004504 59 250 0.0 2.0 0.17 0.61 0.61 95 1012.2
20260903003005 59 248 0.0 3.0 0.13 0.56 0.56 95 1012.0
20260903001504 60 13 0.0 0.0 0.04 0.46 0.46 95 1011.9
20260903000005 60 13 0.0 0.0 0.03 0.44 0.44 95 1011.8
20260902234504 60 13 0.0 0.0 0.03 0.44 0.44 95 1011.8
20260902233005 60 13 0.0 0.0 0.03 0.43 0.43 95 1011.9
20260902231504 60 13 0.0 0.0 0.02 0.42 0.42 95 1011.8
20260902230005 60 13 0.0 0.0 0.02 0.41 0.41 95 1011.8
20260902223004 59 13 0.0 0.0 0.02 0.40 0.40 94 1011.8
20260902221504 59 12 0.0 0.0 0.03 0.40 0.40 94 1011.9
20260902220004 59 12 0.0 0.0 0.05 0.39 0.39 94 1011.8
20260902214505 59 12 0.0 0.0 0.10 0.39 0.39 94 1011.8
20260902213005 59 12 0.0 0.0 0.13 0.38 0.38 94 1011.9
20260902211505 59 12 0.0 0.0 0.15 0.37 0.37 93 1011.8
20260902204505 60 34 0.0 0.0 0.10 0.29 0.29 94 1011.3
20260902203004 60 319 0.0 0.0 0.08 0.25 0.25 94 1011.4
20260902201505 60 319 0.0 0.0 0.07 0.22 0.22 94 1011.4
20260902200005 60 318 0.0 0.0 0.06 0.20 0.20 94 1011.4
20260902194505 60 293 0.0 0.0 0.08 0.19 0.19 92 1011.4
20260902191505 60 293 0.0 0.0 0.13 0.15 0.15 93 1012.2
20260902190004 60 293 0.0 0.0 0.13 0.14 0.14 92 1012.3
20260902183004 62 31 0.0 0.0 0.04 0.05 0.05 89 1012.2
20260902181504 62 31 0.0 0.0 0.02 0.02 0.02 88 1012.0
20260902174504 62 31 0.0 0.0 0.01 0.01 0.01 86 1011.7
20260902173004 63 31 0.0 0.0 0.01 0.02 0.01 84 1011.7
20260902171505 64 26 0.0 0.0 0.00 0.02 0.00 78 1011.8
20260902170004 64 94 0.0 0.0 0.00 0.02 0.00 74 1011.5
20260902164505 64 77 0.0 1.0 0.00 0.02 0.00 75 1011.7
20260902163005 63 77 0.0 3.0 0.00 0.02 0.00 76 1011.7
20260902161504 63 126 0.0 3.0 0.00 0.02 0.00 75 1011.9
20260902160006 63 199 0.0 5.0 0.00 0.02 0.00 75 1012.0
20260902153004 63 66 0.0 9.0 0.00 0.02 0.00 76 1012.3
20260902151504 63 103 0.0 0.0 0.00 0.02 0.00 75 1012.4
20260902150004 62 72 0.0 0.0 0.00 0.02 0.00 77 1012.5
20260902144504 61 19 0.0 0.0 0.00 0.02 0.00 78 1012.6
20260902143004 61 24 0.0 0.0 0.00 0.02 0.00 78 1012.8
20260902140005 61 317 0.0 0.0 0.00 0.02 0.00 79 1013.2
20260902134504 61 317 0.0 0.0 0.00 0.02 0.00 78 1013.4
20260902131504 61 317 0.0 0.0 0.00 0.02 0.00 77 1013.8
20260902130004 62 317 0.0 0.0 0.00 0.02 0.00 77 1014.0
20260902124505 62 317 0.0 0.0 0.00 0.02 0.00 76 1014.1
20260902123005 62 309 0.0 0.0 0.00 0.02 0.00 75 1014.4
20260902121505 62 269 0.0 0.0 0.00 0.02 0.00 76 1014.5
20260902120004 62 321 0.0 0.0 0.00 0.02 0.00 74 1014.5
20260902111504 62 313 0.0 0.0 0.00 0.02 0.00 76 1014.8
20260902110007 62 313 0.0 0.0 0.00 0.02 0.00 76 1014.7
20260902104505 62 263 0.0 0.0 0.00 0.02 0.00 76 1014.8
20260902103004 62 263 0.0 0.0 0.00 0.02 0.00 75 1015.2
20260902101504 62 263 0.0 0.0 0.00 0.02 0.00 75 1015.4
20260902100004 62 272 0.0 0.0 0.00 0.02 0.00 76 1015.5
20260902094504 62 272 0.0 0.0 0.00 0.02 0.00 75 1015.4
20260902093006 63 273 0.0 0.0 0.00 0.02 0.00 75 1015.6
20260902091504 63 252 0.0 0.0 0.00 0.02 0.00 74 1015.6